Weather in Baykhor

Russia / Zabaykalsky Krai     50°17′47″N   108°34′57″E
temp.,
°C
wind,
m/s
gust,
m/s
humid.,
%
clouds,
%
prec.,
mm/h
press.,
hPa
HPBL,
m
17 may, mon
mon1700:00+6nne11785 0.0 101110
03:00+5nne00865 0.0 101010
06:00+3sw1187100 0.0 100711
09:00+11wsw254895 0.0 1004400
12:00+17nnw6740100 0.0 10031980
15:00+12nw3664100 0.4 1006891
18:00+14nnw244921 0.0 10041479
21:00+10nnw375895 0.0 1005405
18 may, tue
tue1800:00+5nw227894 0.0 100921
03:00+5w1379100 0.0 1010123
06:00+3n0190100 0.0 101111
09:00+6nw127293 0.4 1011775
12:00+7w2368100 0.3 1010989
15:00+10sw245695 0.6 10091217
18:00+13wnw363558 0.0 10062177
21:00+8wnw115618 0.0 100611
19 may, wed
wed1900:00+3sw117838 0.0 100812
03:00+2s1188100 0.0 100511
06:00+2se1184100 0.0 100215
09:00+9sw1560100 0.0 998342
12:00+17w5839100 0.0 9941556
15:00+18nw673785 0.0 9952313
18:00+14nnw465112 0.0 9991264
21:00+9nne22663 0.0 100117
20 may, thu
thu2000:00+5e11855 0.0 100211
03:00+3ese1193100 0.0 100012
06:00+3ese1196100 0.0 99811
09:00+8ene2276100 0.0 997198
12:00+18ene234499 0.0 9951054
15:00+21ne333798 0.0 9931746
18:00+21ne323652 0.0 9891372
21:00+14n227541 0.6 98924
21 may, fri
fri2100:00+10nnw1195100 3.7 99065
03:00+7nne129888 3.8 98833
06:00+7nw2394100 0.0 988313
09:00+5nw2392100 0.4 991539
12:00+1w3896100 1.5 996686
15:00+1w61184100 4.1 9981052
18:00+2w61172100 0.5 9991274
21:000w61481100 0.9 10021191